Starlink 4079

operational
NORAD ID: 52666 Int'l Des: 2022-053 Owner: SPXS Country: US Constellation: starlink
LEOCIRCULAR

Über Starlink 4079

Beschreibung wird geladen...

Live-Position

3D-Globus wird geladen...

Nächste Überflüge

Höhenverlauf

Altitude vs Time

uPlot chart will show altitude changes over time

Zweizeiliger Elementsatz

1 52666U 22053L 25256.63883177 -.00000034 00000-0 15928-4 0 9997
2 52666 53.2168 228.5502 0001316 89.5290 270.5853 15.08835186184323
Epoch: 13. Sept. 2025 • Age: 42 hours

Aktueller Status

Höhe 545.0 km
Geschwindigkeit 7.60 km/s
Subsatellitenpunkt 51.19°N, 158.71°E
Startdatum 18. Mai 2022
Alter 3.3 years
Typ internet

Technische Details

Klassifizierung Payload
Masse 297.00 kg
Trockenmasse 275.00 kg
Gesamtmasse 297.00 kg
Länge 0.20 m
Durchmesser 2.80 m
Spannweite 9.00 m
Form Box + pan
Hersteller SPXS
Bus-Typ Starlink
Phasenstatus In Orbit
Besitzer/Staat SPXS/US

Große Konstellationen

Loading constellations...